Location: Eppenbrunn
(49.1158°N, 7.5601°E)
Time: 02:39:10
(UTC+00:00)

STARLINK-2688 - Pass Details

Date: 01 August 2021
Orbit: 546 x 548 km, 53.1° (Epoch: 19 September)

Event Time Altitude Azimuth Distance (km) Brightness Sun altitude
Rises 20:07:03 0° 286° (WNW) 2,720 8.5 -8.6°
Reaches altitude 10° 20:10:14 10° 260° (W) 1,821 6.9 -9.0°
Maximum altitude 20:12:19 14° 230° (SW) 1,594 6.1 -9.3°
Drops below altitude 10° 20:14:24 10° 199° (SSW) 1,814 6.0 -9.6°
Enters shadow 20:16:29 - 180° (S) 2,353 6.4 -9.8°
